"Pseudo-MPEC" for P2182Jz

Created 2020 Oct 19 1:07:45 UT using Find_Orb

Click here for an explanation of pseudo-MPECs

 
 Astrometry: 
     P2182Jz  C2020 10 15i7:W9D7HKHX.a.3$qvQO24^'Z?yTbAstrometryhEy8!6`8?5y'HF52
     P2182Jz  C2020 10 15#Rx/'0CEnJ=(C6+^[b7Mc'3i?,$?3veX+GhNF6RdrvZ.'?Ci0p,8F52
     P2182Jz  C2020 10 15^vWjTPX5Mwm2D6akL9/yii-Kb+ns!!19QB*+st9h28$redacted;F52
     P2182Jz  C2020 10 17M]PAl)0[7[Dv*=Q+(k\JuAwkw*^0Bb]%lXKvi-g$+c.:m^+).Z%,F51
     P2182Jz  C2020 10 17Ku)VYmRA+2gc]c,DP1)ms+.gi9pRtO^yJAU)ib$ttl71UDV`/_S(F51
     P2182Jz KC2020 10 18E;I4Utf)I$(t8#i\=NNT_]xoclickw-UQjl9h!g/^here73g13YhL01
     P2182Jz KC2020 10 18V3Js;RN6p3h%2%e%mfm%*jloW%]hlba-:i-*pWr86jforJ;UOcvBL01
     P2182Jz KC2020 10 18?!cGuAL3/ruJexplanation%i:fNdxF46PlUmBR2CXPD.qJAZB*GL01
     P2182Jz KC2020 10 18_D33b13FJDPpTC8`/5_YL0)GjK=OL#s_j6K$Tq(y!x-xjmaYe!8lL01
     P2182Jz KC2020 10 18.78186000 05 17.89 +32 53 01.8    ~AIKb 20.8 GVNEOCPC95
     P2182Jz KC2020 10 18.81843600 05 20.69 +32 54 27.6    ~AIKb 20.9 GVNEOCPC95

Station data:
(C95) SATINO Remote Observatory, Haute Provence  (N43.932042 E5.712390)
   France.  Observer J. Jahn. 0.60-m f/3.2 Newtonian reflector + CCD.
(F51) Pan-STARRS 1, Haleakala  (N20.707235 W156.255910)  US/Hawaii.
   Observers N. Primak, A. Schultz, S. Watters, J. Thiel, T. Goggia. Measurer
   PS1 Science Consortium. 1.8-m Ritchey-Chrétien + CCD.
(F52) Pan-STARRS 2, Haleakala  (N20.707384 W156.255910)  US/Hawaii. 1.8-m
   Ritchey-Chrétien + CCD.
(L01) Višnjan Observatory, Tičan  (N45.290900 E13.749300)  Croatia.
   Observers K. Korlević, E. Pettarin. Measurer E. Pettarin. 1.0-m f/2.9
   reflector + CCD.

Orbital elements:  P2182Jz
   Perihelion 2020 Dec 4.274156 +/- 0.0194 TT =  6:34:47 (JD 2459187.774156)
Epoch 2020 Oct 18.0 TT = JDT 2459140.5   Earth MOID: 0.0004   Ma: 0.0087
M 330.68950301 +/- 0.06             (J2000 ecliptic)          AutoNEOCP
n   0.62001100 +/- 0.00106          Peri.  225.52605 +/- 0.014
a   1.36208157 +/- 0.00155          Node   214.99665 +/- 0.007
e   0.3246798 +/- 0.000885          Incl.    6.03500 +/- 0.014
P   1.59/580.62d           H 27.2   G  0.15   U  8.1  
q 0.91984115 +/- 0.000163    Q 1.80432198 +/- 0.00327
From 11 observations 2020 Oct. 15-18; mean residual 0".22
Residuals in arcseconds: 
201015 F52  .06+  .04+    201017 F51  .05-  .09+    201018 L01  .08-  .18+    
201015 F52  .07-  .01-    201018 L01  .05+  .29-    201018 C95  .52-  .42-    
201015 F52  .01+  .04-    201018 L01  .08+  .08-    201018 C95  .21+  .21+    
201017 F51  .03+  .07-    201018 L01  .37+  .45+    

Ephemerides (geocentric):
Date (UTC) HH   RA              Dec         delta   r     elong  mag " sig PA
---- -- -- --  -------------   -----------  ------ ------ -----  --- ---- ---
2020 10 19 01  00 05 45.316   +33 02 55.93  .03641 1.0274 149.0 21.4 .291 117
2020 10 19 02  00 05 51.535   +33 04 22.14  .03623 1.0273 149.0 21.3 .296 117
2020 10 19 03  00 05 57.828   +33 05 49.11  .03605 1.0271 149.0 21.3 .301 116
2020 10 19 04  00 06 04.197   +33 07 16.84  .03587 1.0269 149.0 21.3 .306 115
2020 10 19 05  00 06 10.644   +33 08 45.35  .03569 1.0267 148.9 21.3 .311 115
2020 10 19 06  00 06 17.169   +33 10 14.65  .03551 1.0266 148.9 21.3 .317 114
2020 10 19 07  00 06 23.774   +33 11 44.75  .03533 1.0264 148.9 21.3 .322 113
2020 10 19 08  00 06 30.460   +33 13 15.66  .03515 1.0262 148.9 21.3 .327 113
2020 10 19 09  00 06 37.228   +33 14 47.40  .03496 1.0261 148.9 21.3 .333 112
2020 10 19 10  00 06 44.080   +33 16 19.98  .03478 1.0259 148.9 21.3 .338 111
2020 10 19 11  00 06 51.017   +33 17 53.41  .03460 1.0257 148.9 21.2 .344 110
2020 10 19 12  00 06 58.039   +33 19 27.70  .03442 1.0255 148.9 21.2 .350 110
2020 10 19 13  00 07 05.150   +33 21 02.88  .03424 1.0254 148.8 21.2 .356 109
2020 10 19 14  00 07 12.350   +33 22 38.94  .03406 1.0252 148.8 21.2 .363 108
2020 10 19 15  00 07 19.640   +33 24 15.92  .03388 1.0250 148.8 21.2 .369 108
2020 10 19 16  00 07 27.022   +33 25 53.81  .03370 1.0249 148.8 21.2 .375 107
2020 10 19 17  00 07 34.498   +33 27 32.64  .03352 1.0247 148.8 21.2 .382 106
2020 10 19 18  00 07 42.069   +33 29 12.42  .03334 1.0245 148.8 21.2 .389 105
2020 10 19 19  00 07 49.736   +33 30 53.17  .03316 1.0243 148.8 21.2 .396 104
2020 10 19 20  00 07 57.502   +33 32 34.90  .03298 1.0242 148.8 21.1 .404 104
2020 10 19 21  00 08 05.368   +33 34 17.63  .03280 1.0240 148.8 21.1 .411 103
2020 10 19 22  00 08 13.336   +33 36 01.37  .03262 1.0238 148.7 21.1 .419 102
2020 10 19 23  00 08 21.407   +33 37 46.15  .03243 1.0237 148.7 21.1 .427 101
2020 10 20 00  00 08 29.584   +33 39 31.97  .03225 1.0235 148.7 21.1 .436 100
2020 10 20 01  00 08 37.867   +33 41 18.85  .03207 1.0233 148.7 21.1 .444 100
2020 10 20 02  00 08 46.260   +33 43 06.82  .03189 1.0231 148.7 21.1 .453  99
2020 10 20 03  00 08 54.763   +33 44 55.89  .03171 1.0230 148.7 21.1 .462  98
2020 10 20 04  00 09 03.379   +33 46 46.08  .03153 1.0228 148.7 21.0 .472  97
2020 10 20 05  00 09 12.110   +33 48 37.41  .03135 1.0226 148.7 21.0 .481  96
2020 10 20 06  00 09 20.958   +33 50 29.89  .03117 1.0225 148.7 21.0 .492  96
2020 10 20 07  00 09 29.925   +33 52 23.55  .03099 1.0223 148.6 21.0 .502  95
2020 10 20 08  00 09 39.013   +33 54 18.41  .03081 1.0221 148.6 21.0 .513  94
2020 10 20 09  00 09 48.224   +33 56 14.49  .03063 1.0220 148.6 21.0 .524  93
2020 10 20 10  00 09 57.561   +33 58 11.81  .03045 1.0218 148.6 21.0 .536  92
2020 10 20 11  00 10 07.026   +34 00 10.38  .03027 1.0216 148.6 21.0 .548  91
2020 10 20 12  00 10 16.621   +34 02 10.24  .03009 1.0214 148.6 20.9 .560  91
2020 10 20 13  00 10 26.349   +34 04 11.40  .02991 1.0213 148.6 20.9 .573  90
2020 10 20 14  00 10 36.212   +34 06 13.89  .02973 1.0211 148.6 20.9 .587  89
2020 10 20 15  00 10 46.213   +34 08 17.73  .02955 1.0209 148.6 20.9 .601  88
2020 10 20 16  00 10 56.354   +34 10 22.95  .02937 1.0208 148.5 20.9 .615  87
2020 10 20 17  00 11 06.638   +34 12 29.56  .02919 1.0206 148.5 20.9 .630  87
2020 10 20 18  00 11 17.069   +34 14 37.60  .02901 1.0204 148.5 20.9 .645  86
2020 10 20 19  00 11 27.647   +34 16 47.09  .02883 1.0203 148.5 20.9 .661  85
2020 10 20 20  00 11 38.378   +34 18 58.05  .02865 1.0201 148.5 20.8 .678  84
2020 10 20 21  00 11 49.263   +34 21 10.52  .02847 1.0199 148.5 20.8 .695  84
2020 10 20 22  00 12 00.306   +34 23 24.52  .02830 1.0198 148.5 20.8 .712  83
2020 10 20 23  00 12 11.510   +34 25 40.08  .02812 1.0196 148.5 20.8 .731  82
2020 10 21 00  00 12 22.878   +34 27 57.22  .02794 1.0194 148.5 20.8 .750  81